(502861) = 2015 DA197

Discovered at Catalina on 2010-02-15 by CSS.

Orbit

Orbit type: Main Belt

Note: WebGL enabled browser required.

epoch2024-03-31.0
epoch JD2460400.5
perihelion date2023-08-16.64840
perihelion JD2460173.14840
argument of perihelion (°)118.98271
ascending node (°)334.46138
inclination (°)21.39622
eccentricity0.1503830
perihelion distance (AU)2.3642039
Tisserand w.r.t. Jupiter3.2
ΔV w.r.t. Earth (km/sec)11.7
semimajor axis (AU)2.7826701
mean anomaly (°)48.27355
mean daily motion (°/day)0.21233000
aphelion distance (AU)3.201
period (years)4.64
P-vector [x]-0.08606617
P-vector [y]0.73897360
P-vector [z]0.66821451
Q-vector [x]-0.98379670
Q-vector [y]0.04284335
Q-vector [z]-0.17409338
absolute magnitude16.19
phase slope0.15
uncertainty0
referenceMPEC 2024-E73
observations used263
oppositions10
arc length (days)5643
first opposition used2008
last opposition used2024
residual rms (arc-secs)0.69
perturbers coarse indicatorM-v
perturbers precise indicator003Ek
first observation date used2008-09-22.0
last observation date used2024-03-05.0
computer nameMPCLINUX
JD of orbit computation2458011.209895
perihelion JD uncertainty (days)2.3120E-04
argument of perihelion uncertainty (°)4.5159E-05
ascending node uncertainty (°)1.2246E-05
inclination uncertainty (°)7.6112E-06
eccentricity uncertainty 3.1265E-08
perihelion distance uncertainty (AU)1.0044E-07
Minimum Orbit Intersection Distances (in AU)
for orbit epoch: 2460400.5, reference: E2024-GF4
Mercury2.05975
Venus1.68335
Earth1.44767
Mars0.80906
Jupiter2.02954
Saturn6.74721
Uranus15.8045
Neptune27.0602

Observations

271 total observations over interval: 2008 09 22.36337 – 2024 03 05.220322
These data are available for download (format description).

Date (UT) J2000 RA J2000 Dec Magn Location Ref
2008 09 22.36337 23 27 46.00 +11 45 50.9 19.3 V 703 – Catalina Sky Survey MPS 815677
2008 09 22.37176 23 27 45.46 +11 45 50.5 19.8 V 703 – Catalina Sky Survey MPS 815677
2008 09 22.38019 23 27 45.00 +11 45 49.7 19.3 V 703 – Catalina Sky Survey MPS 815677
2008 09 22.38862 23 27 44.35 +11 45 51.3 19.6 V 703 – Catalina Sky Survey MPS 815677
2010 02 15.17189 09 12 04.57 +27 18 32.5 19.4 V 703 – Catalina Sky Survey MPS 615181
2010 02 15.17928 09 12 03.96 +27 18 30.4 19.6 V 703 – Catalina Sky Survey MPS 615181
2010 02 15.18675 09 12 03.42 +27 18 28.8 19.1 V 703 – Catalina Sky Survey MPS 615181
2010 02 15.19419 09 12 02.95 +27 18 28.4 18.8 V 703 – Catalina Sky Survey MPS 615181
2010 03 05.21642 08 53 43.00 +25 03 35.0 19.8 V 703 – Catalina Sky Survey MPS 615181
2010 03 05.22101 08 53 42.79 +25 03 33.6 20.4 V 703 – Catalina Sky Survey MPS 615181
2010 03 05.22554 08 53 42.46 +25 03 30.7 20.8 V 703 – Catalina Sky Survey MPS 615181
2010 03 05.23010 08 53 42.28 +25 03 27.5 20.3 V 703 – Catalina Sky Survey MPS 615181
2013 09 29.52926 02 10 38.879 +41 42 21.95 19.9 r F51 – Pan-STARRS 1, Haleakala MPS 815677
2013 09 29.53490 02 10 38.590 +41 42 24.88 19.8 r F51 – Pan-STARRS 1, Haleakala MPS 615181
2013 09 29.54123 02 10 38.285 +41 42 28.29 19.8 r F51 – Pan-STARRS 1, Haleakala MPS 815677
2013 09 29.54687 02 10 38.015 +41 42 31.56 19.7 r F51 – Pan-STARRS 1, Haleakala MPS 615181
2013 09 29.56088 02 10 37.306 +41 42 39.05 19.7 i F51 – Pan-STARRS 1, Haleakala MPS 615181
2013 09 29.56794 02 10 36.944 +41 42 42.77 19.7 i F51 – Pan-STARRS 1, Haleakala MPS 815677
2013 09 29.57395 02 10 36.633 +41 42 46.16 19.6 i F51 – Pan-STARRS 1, Haleakala MPS 615181
2013 10 17.40808 01 51 52.268 +43 38 41.00 19.4 i F51 – Pan-STARRS 1, Haleakala MPS 615181
2013 10 17.42027 01 51 51.320 +43 38 43.42 19.5 i F51 – Pan-STARRS 1, Haleakala MPS 615181
2013 10 17.45686 01 51 48.464 +43 38 51.32 19.5 r F51 – Pan-STARRS 1, Haleakala MPS 615181
2013 10 17.46801 01 51 47.598 +43 38 53.54 19.7 r F51 – Pan-STARRS 1, Haleakala MPS 615181
2013 10 27.15574 01 39 17.41 +43 55 32.6 18.4 V 703 – Catalina Sky Survey MPS 815677
2013 10 27.16349 01 39 16.89 +43 55 30.9 19.0 V 703 – Catalina Sky Survey MPS 815677
2013 10 27.17120 01 39 16.42 +43 55 32.8 20.0 V 703 – Catalina Sky Survey MPS 815677
2013 10 27.17890 01 39 15.61 +43 55 32.6 19.4 V 703 – Catalina Sky Survey MPS 815677
2013 11 11.28944 01 20 56.50 +43 15 25.2 19.6 V 703 – Catalina Sky Survey MPS 815677
2013 11 11.29451 01 20 56.15 +43 15 23.7 19.9 V 703 – Catalina Sky Survey MPS 815677
2013 11 11.29959 01 20 55.80 +43 15 23.4 19.5 V 703 – Catalina Sky Survey MPS 815677
2013 11 11.30465 01 20 55.40 +43 15 19.5 18.9 V 703 – Catalina Sky Survey MPS 815677
2015 01 23.53519 12 06 01.240 -06 10 18.13 20.4 w F51 – Pan-STARRS 1, Haleakala MPS 612689
2015 01 23.55053 12 06 01.076 -06 10 26.01 20.4 w F51 – Pan-STARRS 1, Haleakala MPS 612689
2015 01 23.56592 12 06 00.913 -06 10 33.87 20.4 w F51 – Pan-STARRS 1, Haleakala MPS 612689
2015 01 23.58133 12 06 00.754 -06 10 41.81 20.3 w F51 – Pan-STARRS 1, Haleakala MPS 612689
2015 01 25.52690 12 05 40.231 -06 27 06.92 20.3 w F51 – Pan-STARRS 1, Haleakala MPS 612689
2015 01 25.52755 12 05 40.216 -06 27 07.39 20.4 w F51 – Pan-STARRS 1, Haleakala MPS 815677
2015 01 25.54224 12 05 40.021 -06 27 14.69 20.2 w F51 – Pan-STARRS 1, Haleakala MPS 612689
2015 01 25.54289 12 05 40.002 -06 27 15.10 20.4 w F51 – Pan-STARRS 1, Haleakala MPS 815677
2015 01 25.55751 12 05 39.811 -06 27 22.36 20.3 w F51 – Pan-STARRS 1, Haleakala MPS 612689
2015 01 25.55817 12 05 39.783 -06 27 22.66 20.5 w F51 – Pan-STARRS 1, Haleakala MPS 815677
2015 01 25.57287 12 05 39.597 -06 27 30.00 20.3 w F51 – Pan-STARRS 1, Haleakala MPS 612689
2015 01 25.57352 12 05 39.569 -06 27 30.36 20.3 w F51 – Pan-STARRS 1, Haleakala MPS 815677
2015 02 14.43950 11 55 59.37 -08 47 52.2 19.9 r G45 – Space Surveillance Telescope, Atom Site MPS 595438
2015 02 14.44941 11 55 58.90 -08 47 55.8 19.2 r G45 – Space Surveillance Telescope, Atom Site MPS 595438
2015 02 14.45355 11 55 58.76 -08 47 57.5 19.7 r G45 – Space Surveillance Telescope, Atom Site MPS 595438
2015 02 14.45864 11 55 58.49 -08 47 58.5 20.4 r G45 – Space Surveillance Telescope, Atom Site MPS 595438
2015 02 17.43056 11 53 36.58 -09 04 00.2 19.6 r G45 – Space Surveillance Telescope, Atom Site MPS 595438
2015 02 17.43464 11 53 36.34 -09 04 00.9 19.9 r G45 – Space Surveillance Telescope, Atom Site MPS 595438
2015 02 17.44046 11 53 36.12 -09 04 03.9 19.4 r G45 – Space Surveillance Telescope, Atom Site MPS 595438
2015 02 17.44562 11 53 35.83 -09 04 04.4 19.9 r G45 – Space Surveillance Telescope, Atom Site MPS 595438
2015 02 22.45283 11 49 09.048 -09 27 41.61 20.0 w F51 – Pan-STARRS 1, Haleakala MPS 583506
2015 02 22.46445 11 49 08.370 -09 27 44.59 19.7 w F51 – Pan-STARRS 1, Haleakala MPS 583506
2015 02 22.47607 11 49 07.675 -09 27 47.70 19.9 w F51 – Pan-STARRS 1, Haleakala MPS 583506
2015 02 22.48773 11 49 07.008 -09 27 50.65 20.0 w F51 – Pan-STARRS 1, Haleakala MPS 583506
2015 02 23.46667 11 48 11.149 -09 31 57.26 19.9 w F51 – Pan-STARRS 1, Haleakala MPS 583506
2015 02 23.47816 11 48 10.463 -09 32 00.12 19.9 w F51 – Pan-STARRS 1, Haleakala MPS 583506
2015 02 23.50116 11 48 09.083 -09 32 05.74 19.8 w F51 – Pan-STARRS 1, Haleakala MPS 583506
2015 03 10.35407 11 32 20.84 -10 14 10.8 19.7 V 703 – Catalina Sky Survey MPS 815677
2015 03 10.35809 11 32 20.50 -10 14 11.4 20.0 V 703 – Catalina Sky Survey MPS 815677
2015 03 10.36210 11 32 20.33 -10 14 12.4 19.6 V 703 – Catalina Sky Survey MPS 815677
2015 03 10.36613 11 32 20.00 -10 14 12.7 20.2 V 703 – Catalina Sky Survey MPS 815677
2015 03 16.26764 11 25 40.67 -10 20 52.9 20.0 V 703 – Catalina Sky Survey MPS 870057
2015 03 16.27477 11 25 40.11 -10 20 52.0 19.8 V 703 – Catalina Sky Survey MPS 870057
2015 03 16.28191 11 25 39.63 -10 20 53.3 20.2 V 703 – Catalina Sky Survey MPS 870057
2015 03 16.28904 11 25 39.02 -10 20 52.8 19.5 V 703 – Catalina Sky Survey MPS 870057
2015 04 17.19634 10 57 35.09 -10 00 48.3 20.1 V G96 – Mt. Lemmon Survey MPS 815677
2015 04 17.20141 10 57 34.88 -10 00 48.3   G96 – Mt. Lemmon Survey MPS 815677
2015 04 17.20650 10 57 34.71 -10 00 47.7 19.7 V G96 – Mt. Lemmon Survey MPS 815677
2015 04 17.21157 10 57 34.61 -10 00 47.6 19.6 V G96 – Mt. Lemmon Survey MPS 815677
2017 07 24.49106 22 54 04.011 -10 43 26.87 20.8 w F51 – Pan-STARRS 1, Haleakala MPS 806655
2017 07 24.50200 22 54 03.623 -10 43 25.77 20.7 w F51 – Pan-STARRS 1, Haleakala MPS 806655
2017 07 24.51294 22 54 03.251 -10 43 24.59 20.7 w F51 – Pan-STARRS 1, Haleakala MPS 806655
2017 07 24.52444 22 54 02.845 -10 43 23.49 20.8 w F51 – Pan-STARRS 1, Haleakala MPS 806655
2017 08 01.48221 22 48 53.330 -10 32 03.16 20.6 w F51 – Pan-STARRS 1, Haleakala MPS 807987
2017 08 01.49354 22 48 52.809 -10 32 02.39 20.5 w F51 – Pan-STARRS 1, Haleakala MPS 807987
2017 08 01.50488 22 48 52.292 -10 32 01.63 20.5 w F51 – Pan-STARRS 1, Haleakala MPS 807987
2017 08 01.51622 22 48 51.769 -10 32 00.83 20.6 w F51 – Pan-STARRS 1, Haleakala MPS 807987
2017 08 28.30822 22 23 33.06 -10 11 54.0 19.9 V G96 – Mt. Lemmon Survey MPS 813431
2017 08 28.31414 22 23 32.67 -10 11 53.7 20.0 V G96 – Mt. Lemmon Survey MPS 813431
2017 08 28.32005 22 23 32.28 -10 11 53.5 19.9 V G96 – Mt. Lemmon Survey MPS 813431
2017 08 28.32594 22 23 31.91 -10 11 53.2 20.0 V G96 – Mt. Lemmon Survey MPS 813431
2017 09 14.35999 22 06 13.762 -09 56 10.73 20.3 w F51 – Pan-STARRS 1, Haleakala MPS 815677
2017 09 14.37148 22 06 13.098 -09 56 09.84 20.3 w F51 – Pan-STARRS 1, Haleakala MPS 815677
2017 09 14.38292 22 06 12.445 -09 56 08.99 20.4 w F51 – Pan-STARRS 1, Haleakala MPS 815677
2017 09 14.39433 22 06 11.793 -09 56 08.13 20.4 w F51 – Pan-STARRS 1, Haleakala MPS 815677
2017 10 11.28285 21 48 52.744 -08 57 46.83 20.7 w F51 – Pan-STARRS 1, Haleakala MPS 826222
2017 10 11.29518 21 48 52.487 -08 57 44.59 20.6 w F51 – Pan-STARRS 1, Haleakala MPS 826222
2017 10 11.30751 21 48 52.253 -08 57 42.27 20.7 w F51 – Pan-STARRS 1, Haleakala MPS 826222
2017 10 11.31983 21 48 51.985 -08 57 40.02 20.6 w F51 – Pan-STARRS 1, Haleakala MPS 826222
2017 10 21.11050 21 47 01.35 -08 23 36.1   691 – Steward Observatory, Kitt Peak-Spacewatch MPS 831735
